Edinburg, TX

7:34 AM CST on December 09, 2016 (GMT -0600)
Edinburg

Weather History for KEBG - February, 2013

Change the Weather History Date:

Friday, February 1, 2013

  Actual Average (KMFE) Record (KMFE)
Temperature  
Mean Temperature 64 °F -  
Max Temperature 77 °F 71 °F 94 °F (1971)
Min Temperature 51 °F 52 °F 21 °F (1888)
Degree Days  
Heating Degree Days 1    
Growing Degree Days 14 (Base 50)    
Moisture  
Dew Point 46 °F    
Average Humidity 55    
Maximum Humidity 81    
Minimum Humidity 28    
Precipitation  
Precipitation 0.00 in - - ()
Sea Level Pressure  
Sea Level Pressure 30.26 in    
Wind  
Wind Speed 6 mph (ESE)    
Max Wind Speed 17 mph    
Max Gust Speed 20 mph    
Visibility 7 miles    
Events      
Averages and records for this station are not official NWS values.
T = Trace of Precipitation, MM = Missing Value Source: NWS Daily Summary

Daily Weather History Graph

Daily Weather History Graph

Search for Another Location

Airport or City:

Trip Planner

Search our weather history database for the weather conditions in past years. The results will help you decide how hot, cold, wet, or windy it might be!

Date:

Astronomy

Feb. 01, 2013 Rise Set
Actual Time 7:17 AM CST 6:15 PM CST
Civil Twilight 6:52 AM CST 6:39 PM CST
Nautical Twilight 6:25 AM CST 7:07 PM CST
Astronomical Twilight 5:57 AM CST 7:34 PM CST
Moon 11:42 PM CST (2/1) 10:29 AM CST (2/1)
Length of Visible Light 11h 46m
Length of Day
10h 58m
Waning Gibbous, 70% of the Moon is Illuminated
Feb 1
Waning Gibbous
Feb 3
Last Quarter
Feb 10
New
Feb 17
First Quarter
Feb 25
Full

Hourly Weather History & Observations

Time (CST) Temp. Dew Point Humidity Pressure Visibility Wind Dir Wind Speed Gust Speed Precip Events Conditions
12:15 AM 53.6 °F 42.1 °F 65% 30.28 in 10.0 mi ESE 4.6 mph - N/A   Clear
12:35 AM 53.1 °F 43.0 °F 69% 30.28 in 7.0 mi East 4.6 mph - N/A   Clear
12:55 AM 53.2 °F 43.5 °F 70% 30.27 in 10.0 mi ESE 4.6 mph - N/A   Clear
1:15 AM 52.3 °F 43.9 °F 73% 30.26 in 7.0 mi ESE 5.8 mph - N/A   Clear
1:35 AM 53.6 °F 44.6 °F 72% 30.27 in 7.0 mi ESE 4.6 mph - N/A   Clear
1:55 AM 51.8 °F 44.1 °F 75% 30.27 in 7.0 mi SE 3.5 mph - N/A   Clear
2:15 AM 52.7 °F 44.6 °F 74% 30.27 in 7.0 mi SE 4.6 mph - N/A   Clear
2:35 AM 51.3 °F 44.1 °F 76% 30.26 in 7.0 mi Calm Calm - N/A   Clear
2:55 AM 52.2 °F 44.4 °F 75% 30.26 in 7.0 mi ESE 5.8 mph - N/A   Clear
3:15 AM 51.8 °F 44.4 °F 76% 30.26 in 7.0 mi East 3.5 mph - N/A   Clear
3:35 AM 51.8 °F 44.6 °F 76% 30.27 in 7.0 mi Calm Calm - N/A   Clear
4:15 AM 51.4 °F 44.6 °F 77% 30.26 in 7.0 mi East 4.6 mph - N/A   Clear
4:35 AM 51.8 °F 45.0 °F 77% 30.27 in 7.0 mi Calm Calm - N/A   Clear
4:55 AM 52.0 °F 45.1 °F 77% 30.26 in 10.0 mi East 3.5 mph - N/A   Clear
5:15 AM 52.5 °F 45.5 °F 77% 30.28 in 5.0 mi Calm Calm - N/A   Haze
5:35 AM 52.3 °F 45.3 °F 77% 30.28 in 7.0 mi Calm Calm - N/A   Clear
6:15 AM 52.2 °F 45.9 °F 79% 30.28 in 7.0 mi Calm Calm - N/A   Clear
6:35 AM 53.1 °F 46.4 °F 78% 30.28 in 7.0 mi Calm Calm - N/A   Clear
6:55 AM 52.3 °F 46.2 °F 80% 30.30 in 7.0 mi Calm Calm - N/A   Scattered Clouds
7:15 AM 51.8 °F 46.0 °F 81% 30.31 in 7.0 mi Calm Calm - N/A   Scattered Clouds
7:35 AM 51.8 °F 45.9 °F 80% 30.31 in 7.0 mi Calm Calm - N/A   Clear
7:55 AM 52.9 °F 47.3 °F 81% 30.31 in 4.0 mi Calm Calm - N/A   Haze
8:15 AM 55.9 °F 49.1 °F 78% 30.31 in 5.0 mi East 3.5 mph - N/A   Haze
8:35 AM 59.5 °F 50.7 °F 73% 30.32 in 7.0 mi ESE 4.6 mph - N/A   Clear
9:15 AM 66.4 °F 49.8 °F 55% 30.32 in 7.0 mi ESE 11.5 mph - N/A   Clear
9:35 AM 68.4 °F 49.6 °F 51% 30.33 in 7.0 mi ESE 11.5 mph - N/A   Clear
9:55 AM 70.0 °F 49.3 °F 48% 30.33 in 5.0 mi ESE 12.7 mph - N/A   Haze
10:15 AM 71.2 °F 48.2 °F 44% 30.33 in 7.0 mi ESE 15.0 mph - N/A   Clear
10:35 AM 72.3 °F 46.9 °F 40% 30.33 in 7.0 mi ESE 12.7 mph - N/A   Clear
10:55 AM 72.9 °F 45.0 °F 37% 30.32 in 5.0 mi ESE 11.5 mph - N/A   Haze
11:15 AM 73.9 °F 45.1 °F 36% 30.32 in 7.0 mi East 12.7 mph - N/A   Clear
11:35 AM 74.7 °F 42.8 °F 32% 30.31 in 7.0 mi East 9.2 mph 16.1 mph N/A   Clear
11:55 AM 75.7 °F 41.9 °F 30% 30.30 in 7.0 mi ESE 5.8 mph 18.4 mph N/A   Clear
12:15 PM 73.6 °F 41.5 °F 32% 30.30 in 7.0 mi SE 9.2 mph - N/A   Mostly Cloudy
12:35 PM 75.4 °F 41.7 °F 30% 30.29 in 7.0 mi SSE 6.9 mph - N/A   Overcast
12:55 PM 75.6 °F 41.2 °F 29% 30.27 in 10.0 mi SE 11.5 mph 17.3 mph N/A   Overcast
1:15 PM 75.0 °F 41.2 °F 30% 30.26 in 7.0 mi SE 9.2 mph - N/A   Overcast
1:35 PM 75.6 °F 41.4 °F 29% 30.25 in 7.0 mi SE 12.7 mph - N/A   Overcast
1:55 PM 76.3 °F 41.2 °F 28% 30.23 in 7.0 mi ESE 9.2 mph - N/A   Overcast
2:15 PM 77.0 °F 41.4 °F 28% 30.22 in 5.0 mi SSE 9.2 mph - N/A   Haze
2:35 PM 75.7 °F 40.8 °F 29% 30.21 in 5.0 mi East 6.9 mph - N/A   Haze
3:15 PM 75.2 °F 40.8 °F 29% 30.21 in 7.0 mi SE 9.2 mph - N/A   Overcast
3:35 PM 74.8 °F 40.3 °F 29% 30.21 in 7.0 mi SE 12.7 mph 18.4 mph N/A   Overcast
3:55 PM 74.7 °F 40.3 °F 29% 30.20 in 7.0 mi SE 15.0 mph - N/A   Overcast
4:15 PM 73.9 °F 40.1 °F 29% 30.19 in 10.0 mi ESE 12.7 mph 19.6 mph N/A   Overcast
4:35 PM 73.4 °F 39.9 °F 30% 30.19 in 7.0 mi ESE 16.1 mph - N/A   Overcast
4:55 PM 72.7 °F 41.0 °F 32% 30.19 in 7.0 mi ESE 17.3 mph - N/A   Overcast
5:15 PM 72.1 °F 42.1 °F 34% 30.20 in 7.0 mi ESE 16.1 mph - N/A   Overcast
5:35 PM 70.9 °F 43.7 °F 38% 30.19 in 5.0 mi ESE 12.7 mph - N/A   Haze
5:55 PM 70.2 °F 44.6 °F 40% 30.20 in 7.0 mi ESE 12.7 mph - N/A   Overcast
6:35 PM 68.5 °F 46.2 °F 45% 30.20 in 7.0 mi ESE 12.7 mph - N/A   Mostly Cloudy
6:55 PM 67.6 °F 46.9 °F 47% 30.21 in 10.0 mi ESE 9.2 mph - N/A   Scattered Clouds
7:15 PM 68.2 °F 48.2 °F 49% 30.21 in 7.0 mi ESE 12.7 mph - N/A   Overcast
7:35 PM 68.0 °F 48.7 °F 50% 30.21 in 7.0 mi ESE 11.5 mph - N/A   Overcast
8:15 PM 67.6 °F 49.6 °F 52% 30.22 in 7.0 mi ESE 11.5 mph - N/A   Overcast
8:35 PM 67.5 °F 50.0 °F 53% 30.23 in 10.0 mi ESE 10.4 mph - N/A   Overcast
8:55 PM 67.5 °F 50.5 °F 55% 30.23 in 7.0 mi ESE 10.4 mph - N/A   Overcast
9:15 PM 67.5 °F 50.9 °F 55% 30.24 in 10.0 mi ESE 6.9 mph - N/A   Overcast
9:35 PM 67.1 °F 51.1 °F 56% 30.23 in 10.0 mi ESE 9.2 mph - N/A   Overcast
9:55 PM 66.7 °F 51.3 °F 57% 30.23 in 7.0 mi ESE 6.9 mph - N/A   Overcast
10:15 PM 66.6 °F 51.8 °F 59% 30.23 in 10.0 mi ESE 6.9 mph - N/A   Overcast
10:35 PM 66.4 °F 51.8 °F 59% 30.23 in 7.0 mi ESE 6.9 mph - N/A   Overcast
10:55 PM 66.6 °F 52.0 °F 59% 30.22 in 7.0 mi ESE 6.9 mph - N/A   Overcast
11:15 PM 66.2 °F 52.3 °F 61% 30.22 in 7.0 mi ESE 6.9 mph - N/A   Overcast
11:35 PM 65.5 °F 52.5 °F 63% 30.21 in 7.0 mi SE 5.8 mph - N/A   Overcast
11:55 PM 65.3 °F 52.9 °F 64% 30.20 in 7.0 mi ESE 4.6 mph - N/A   Overcast